Change the Weather History Date:

Sunday, December 30, 2012

  Actual Average (KLTS) Record (KLTS)
Temperature  
Mean Temperature 35 °F -  
Max Temperature 45 °F 49 °F 73 °F (1996)
Min Temperature 25 °F 25 °F 13 °F (2013)
Degree Days  
Heating Degree Days 30    
Moisture  
Dew Point 23 °F    
Average Humidity 59    
Maximum Humidity 77    
Minimum Humidity 40    
Precipitation  
Precipitation 0.00 in - - ()
Sea Level Pressure  
Sea Level Pressure 30.26 in    
Wind  
Wind Speed 8 mph (SSE)    
Max Wind Speed 18 mph    
Max Gust Speed 26 mph    
Visibility 10 miles    
Events      
Averages and records for this station are not official NWS values.
T = Trace of Precipitation, MM = Missing Value Source: NWS Daily Summary

Daily Weather History Graph

Daily Weather History Graph

Search for Another Location

Airport or City:

Trip Planner

Search our weather history database for the weather conditions in past years. The results will help you decide how hot, cold, wet, or windy it might be!

Date:

Astronomy

Dec. 30, 2012 Rise Set
Actual Time 7:42 AM CST 5:37 PM CST
Civil Twilight 7:15 AM CST 6:05 PM CST
Nautical Twilight 6:43 AM CST 6:36 PM CST
Astronomical Twilight 6:13 AM CST 7:06 PM CST
Moon 8:02 PM CST (12/30) 8:58 AM CST (12/30)
Length of Visible Light 10h 49m
Length of Day
9h 54m
Waning Gibbous, 95% of the Moon is Illuminated
Dec 30
Waning Gibbous
Jan 4
Last Quarter
Jan 11
New
Jan 18
First Quarter
Jan 26
Full

Hourly Weather History & Observations

Time (CST) Temp. Windchill Dew Point Humidity Pressure Visibility Wind Dir Wind Speed Gust Speed Precip Events Conditions
12:15 AM 29.5 °F 23.4 °F 21.0 °F 71% 30.38 in 10.0 mi South 5.8 mph - N/A   Clear
12:35 AM 29.3 °F 25.6 °F 20.3 °F 69% 30.38 in 10.0 mi SSW 3.5 mph - N/A   Clear
12:55 AM 30.0 °F 23.2 °F 20.5 °F 68% 30.36 in 10.0 mi South 6.9 mph - N/A   Clear
1:15 AM 30.4 °F 22.9 °F 20.5 °F 67% 30.36 in 10.0 mi South 8.1 mph - N/A   Clear
1:35 AM 28.9 °F 21.9 °F 20.1 °F 70% 30.35 in 10.0 mi South 6.9 mph - N/A   Clear
1:55 AM 28.4 °F 21.2 °F 20.5 °F 72% 30.35 in 10.0 mi South 6.9 mph - N/A   Clear
2:15 AM 28.6 °F 23.5 °F 20.3 °F 71% 30.35 in 10.0 mi South 4.6 mph - N/A   Scattered Clouds
2:35 AM 29.5 °F 24.5 °F 20.5 °F 69% 30.36 in 10.0 mi South 4.6 mph - N/A   Clear
2:55 AM 30.0 °F 25.2 °F 20.7 °F 68% 30.36 in 10.0 mi South 4.6 mph - N/A   Clear
3:15 AM 30.0 °F 25.2 °F 20.8 °F 69% 30.35 in 10.0 mi South 4.6 mph - N/A   Clear
3:35 AM 29.5 °F 24.5 °F 20.5 °F 69% 30.35 in 10.0 mi SSE 4.6 mph - N/A   Clear
3:55 AM 28.9 °F 25.2 °F 20.3 °F 70% 30.34 in 10.0 mi SSE 3.5 mph - N/A   Clear
4:15 AM 28.9 °F 23.9 °F 19.9 °F 69% 30.33 in 10.0 mi SSE 4.6 mph - N/A   Clear
4:35 AM 28.4 °F 24.6 °F 19.9 °F 71% 30.33 in 10.0 mi ESE 3.5 mph - N/A   Clear
4:55 AM 26.4 °F - 19.4 °F 75% 30.32 in 10.0 mi Calm Calm - N/A   Clear
5:15 AM 25.3 °F - 19.0 °F 77% 30.33 in 10.0 mi Calm Calm - N/A   Clear
5:35 AM 25.0 °F - 18.7 °F 77% 30.33 in 10.0 mi Calm Calm - N/A   Clear
5:55 AM 26.4 °F 20.9 °F 19.6 °F 75% 30.33 in 10.0 mi South 4.6 mph - N/A   Clear
6:15 AM 28.2 °F 22.0 °F 20.3 °F 72% 30.33 in 10.0 mi South 5.8 mph - N/A   Clear
6:35 AM 28.6 °F 23.5 °F 20.5 °F 72% 30.33 in 10.0 mi SSE 4.6 mph - N/A   Clear
6:55 AM 29.3 °F 23.2 °F 21.0 °F 71% 30.33 in 10.0 mi SE 5.8 mph - N/A   Clear
7:15 AM 28.6 °F 21.5 °F 21.2 °F 74% 30.32 in 10.0 mi SSE 6.9 mph - N/A   Clear
7:35 AM 29.3 °F 22.3 °F 22.1 °F 75% 30.32 in 10.0 mi SSE 6.9 mph - N/A   Clear
7:55 AM 29.8 °F 26.3 °F 22.6 °F 75% 30.33 in 10.0 mi SSE 3.5 mph - N/A   Clear
8:15 AM 29.7 °F 26.1 °F 22.6 °F 75% 30.34 in 10.0 mi South 3.5 mph - N/A   Clear
8:35 AM 30.7 °F 26.0 °F 23.4 °F 74% 30.34 in 10.0 mi SSE 4.6 mph - N/A   Clear
8:55 AM 31.8 °F 25.4 °F 24.4 °F 74% 30.34 in 10.0 mi SSE 6.9 mph - N/A   Clear
9:15 AM 32.9 °F 26.7 °F 24.8 °F 72% 30.34 in 10.0 mi SSE 6.9 mph - N/A   Clear
9:35 AM 34.0 °F 26.6 °F 25.2 °F 70% 30.35 in 10.0 mi South 9.2 mph - N/A   Clear
9:55 AM 35.1 °F 28.6 °F 25.3 °F 68% 30.35 in 10.0 mi South 8.1 mph - N/A   Clear
10:15 AM 36.1 °F 29.3 °F 25.5 °F 65% 30.35 in 10.0 mi South 9.2 mph - N/A   Clear
10:35 AM 37.2 °F 30.0 °F 25.7 °F 63% 30.34 in 10.0 mi SSE 10.4 mph - N/A   Clear
10:55 AM 38.3 °F 30.5 °F 25.7 °F 61% 30.35 in 10.0 mi South 12.7 mph - N/A   Clear
11:15 AM 39.0 °F 32.3 °F 25.3 °F 58% 30.34 in 10.0 mi South 10.4 mph - N/A   Clear
11:35 AM 40.1 °F 33.6 °F 25.3 °F 56% 30.32 in 10.0 mi South 10.4 mph - N/A   Clear
11:55 AM 41.5 °F 35.0 °F 24.8 °F 51% 30.31 in 10.0 mi South 11.5 mph - N/A   Clear
12:15 PM 42.3 °F 35.9 °F 24.4 °F 49% 30.29 in 10.0 mi South 11.5 mph - N/A   Clear
12:35 PM 42.8 °F 34.5 °F 23.5 °F 47% 30.27 in 10.0 mi South 18.4 mph - N/A   Clear
12:55 PM 43.3 °F 36.1 °F 24.1 °F 47% 30.25 in 10.0 mi SSE 15.0 mph - N/A   Clear
1:15 PM 43.3 °F 35.2 °F 24.1 °F 47% 30.23 in 10.0 mi SSE 18.4 mph 26.5 mph N/A   Clear
1:35 PM 43.3 °F 35.5 °F 23.9 °F 46% 30.23 in 10.0 mi SSE 17.3 mph - N/A   Clear
1:55 PM 43.7 °F 37.3 °F 24.1 °F 46% 30.21 in 10.0 mi South 12.7 mph - N/A   Clear
2:55 PM 44.6 °F 38.1 °F 23.2 °F 43% 30.20 in 10.0 mi SSE 13.8 mph - N/A   Clear
3:15 PM 44.8 °F 39.4 °F 23.4 °F 43% 30.19 in 10.0 mi SSE 10.4 mph - N/A   Clear
3:35 PM 45.0 °F 39.7 °F 22.6 °F 41% 30.18 in 10.0 mi SSE 10.4 mph - N/A   Clear
3:55 PM 44.8 °F 38.7 °F 22.8 °F 42% 30.17 in 10.0 mi SE 12.7 mph - N/A   Clear
4:15 PM 44.6 °F 38.1 °F 23.2 °F 43% 30.17 in 10.0 mi SSE 13.8 mph - N/A   Clear
4:55 PM 44.1 °F 38.1 °F 23.5 °F 44% 30.15 in 10.0 mi SE 11.5 mph - N/A   Clear
5:35 PM 43.3 °F 37.2 °F 22.6 °F 44% 30.13 in 10.0 mi SE 11.5 mph - N/A   Clear
5:55 PM 43.0 °F 37.7 °F 22.6 °F 45% 30.14 in 10.0 mi SE 9.2 mph - N/A   Clear
6:15 PM 42.8 °F 37.5 °F 22.8 °F 45% 30.14 in 10.0 mi SE 9.2 mph - N/A   Clear
6:35 PM 42.4 °F 37.5 °F 23.2 °F 47% 30.15 in 10.0 mi SE 8.1 mph - N/A   Clear
6:55 PM 42.6 °F 36.3 °F 22.8 °F 46% 30.15 in 10.0 mi SE 11.5 mph - N/A   Clear
7:15 PM 43.5 °F 36.7 °F 21.2 °F 41% 30.15 in 10.0 mi SSE 13.8 mph - N/A   Clear
7:35 PM 43.7 °F 37.7 °F 20.7 °F 40% 30.13 in 10.0 mi SE 11.5 mph - N/A   Clear
7:55 PM 42.8 °F 36.6 °F 21.9 °F 44% 30.16 in 10.0 mi SE 11.5 mph - N/A   Clear
8:15 PM 42.8 °F 35.4 °F 22.3 °F 44% 30.16 in 10.0 mi SSE 15.0 mph - N/A   Clear
8:35 PM 42.8 °F 36.6 °F 23.0 °F 46% 30.15 in 10.0 mi SSE 11.5 mph - N/A   Clear
8:55 PM 42.3 °F 34.4 °F 23.9 °F 48% 30.14 in 10.0 mi SSE 16.1 mph 20.7 mph N/A   Scattered Clouds
9:15 PM 42.1 °F 33.9 °F 24.6 °F 50% 30.14 in 10.0 mi SSE 17.3 mph - N/A   Overcast
9:35 PM 41.9 °F 33.7 °F 24.3 °F 50% 30.14 in 10.0 mi SSE 17.3 mph 20.7 mph N/A   Overcast
9:55 PM 41.9 °F 34.0 °F 24.4 °F 50% 30.16 in 10.0 mi SSE 16.1 mph 20.7 mph N/A   Overcast
10:15 PM 41.5 °F 34.2 °F 24.6 °F 51% 30.16 in 10.0 mi SSE 13.8 mph - N/A   Overcast
10:35 PM 41.4 °F 33.6 °F 25.2 °F 53% 30.14 in 10.0 mi SSE 15.0 mph - N/A   Overcast
10:55 PM 41.2 °F 33.7 °F 25.7 °F 54% 30.14 in 10.0 mi SE 13.8 mph 18.4 mph N/A   Overcast
11:15 PM 41.0 °F 34.3 °F 25.7 °F 55% 30.14 in 10.0 mi SE 11.5 mph - N/A   Overcast
11:35 PM 41.0 °F 34.3 °F 25.9 °F 55% 30.14 in 10.0 mi SE 11.5 mph - N/A   Overcast
11:55 PM 41.0 °F 34.7 °F 26.2 °F 56% 30.13 in 10.0 mi SSE 10.4 mph - N/A   Overcast